TimeEDT,TemperatureF,Dew PointF,Humidity,Sea Level PressureIn,VisibilityMPH,Wind Direction,Wind SpeedMPH,Gust SpeedMPH,PrecipitationIn,Events,Conditions,WindDirDegrees,DateUTC
12:54 AM,66.0,64.0,93,29.83,6.0,SSW,5.8,-,N/A,,Clear,200,2013-08-07 04:54:00
1:54 AM,66.0,64.0,93,29.81,5.0,SSW,8.1,-,N/A,,Clear,200,2013-08-07 05:54:00
2:54 AM,64.9,64.0,97,29.80,4.0,SSW,5.8,-,N/A,,Clear,200,2013-08-07 06:54:00
3:27 AM,62.6,62.6,100,29.80,3.0,SSW,3.5,-,N/A,,Partly Cloudy,200,2013-08-07 07:27:00
3:43 AM,62.6,60.8,94,29.79,1.8,South,4.6,-,N/A,,Clear,180,2013-08-07 07:43:00
3:54 AM,61.0,61.0,100,29.77,2.0,South,4.6,-,N/A,,Clear,180,2013-08-07 07:54:00
4:03 AM,60.8,60.8,100,29.78,1.8,South,4.6,-,N/A,,Clear,180,2013-08-07 08:03:00
4:11 AM,62.6,62.6,100,29.78,3.0,South,4.6,-,N/A,,Clear,190,2013-08-07 08:11:00
4:54 AM,63.0,63.0,100,29.75,4.0,South,4.6,-,N/A,,Clear,170,2013-08-07 08:54:00
5:54 AM,66.0,64.9,96,29.74,3.0,South,6.9,-,0.01,Rain,Light Rain,190,2013-08-07 09:54:00
6:04 AM,66.2,64.4,94,29.76,2.0,SSW,19.6,32.2,0.01,Rain-Thunderstorm,Heavy Thunderstorms and Rain,210,2013-08-07 10:04:00
6:06 AM,66.2,64.4,94,29.75,1.2,SSW,26.5,34.5,0.04,Rain-Thunderstorm,Heavy Thunderstorms and Rain,210,2013-08-07 10:06:00
6:16 AM,66.2,64.4,94,29.74,2.0,South,12.7,-,0.28,Rain-Thunderstorm,Thunderstorms and Rain,180,2013-08-07 10:16:00
6:23 AM,66.2,62.6,88,29.71,6.0,SSE,17.3,-,0.30,Rain-Thunderstorm,Thunderstorms and Rain,150,2013-08-07 10:23:00
6:31 AM,64.4,62.6,94,29.69,9.0,SE,15.0,-,0.31,Rain-Thunderstorm,Light Thunderstorms and Rain,140,2013-08-07 10:31:00
6:54 AM,64.9,63.0,93,29.70,10.0,South,11.5,20.7,0.31,,Partly Cloudy,180,2013-08-07 10:54:00
7:54 AM,66.9,63.0,87,29.73,10.0,SSW,10.4,-,N/A,,Clear,210,2013-08-07 11:54:00
8:54 AM,66.0,63.0,90,29.72,10.0,SW,8.1,-,N/A,,Clear,230,2013-08-07 12:54:00
9:54 AM,70.0,61.0,73,29.73,10.0,West,11.5,24.2,N/A,,Clear,260,2013-08-07 13:54:00
10:09 AM,69.8,60.8,73,29.74,10.0,West,12.7,20.7,N/A,,Mostly Cloudy,260,2013-08-07 14:09:00
10:40 AM,71.6,62.6,73,29.74,10.0,WSW,13.8,23.0,N/A,,Mostly Cloudy,250,2013-08-07 14:40:00
10:54 AM,71.1,61.0,70,29.74,10.0,WSW,12.7,24.2,N/A,,Mostly Cloudy,240,2013-08-07 14:54:00
11:25 AM,71.6,62.6,73,29.75,10.0,West,12.7,20.7,N/A,,Overcast,260,2013-08-07 15:25:00
11:37 AM,71.6,62.6,73,29.76,10.0,West,8.1,-,N/A,,Overcast,260,2013-08-07 15:37:00
11:54 AM,72.0,62.1,71,29.77,10.0,West,11.5,19.6,N/A,,Overcast,260,2013-08-07 15:54:00
12:31 PM,73.4,62.6,69,29.78,10.0,West,8.1,-,N/A,,Mostly Cloudy,280,2013-08-07 16:31:00
12:54 PM,73.9,60.1,62,29.78,10.0,Variable,6.9,-,N/A,,Mostly Cloudy,0,2013-08-07 16:54:00
1:54 PM,75.0,60.1,60,29.78,10.0,West,6.9,17.3,N/A,,Mostly Cloudy,260,2013-08-07 17:54:00
2:54 PM,78.1,60.1,54,29.78,10.0,WSW,11.5,16.1,N/A,,Partly Cloudy,250,2013-08-07 18:54:00
3:54 PM,79.0,61.0,54,29.80,10.0,NW,8.1,-,N/A,,Mostly Cloudy,310,2013-08-07 19:54:00
4:54 PM,80.1,60.1,50,29.80,10.0,West,6.9,16.1,N/A,,Mostly Cloudy,280,2013-08-07 20:54:00
5:54 PM,75.9,61.0,60,29.82,10.0,WNW,8.1,-,N/A,,Mostly Cloudy,300,2013-08-07 21:54:00
6:54 PM,75.0,60.1,60,29.84,10.0,NW,6.9,-,N/A,,Mostly Cloudy,310,2013-08-07 22:54:00
7:54 PM,72.0,59.0,64,29.86,10.0,NW,10.4,-,N/A,,Partly Cloudy,310,2013-08-07 23:54:00
8:54 PM,68.0,59.0,73,29.87,10.0,NW,6.9,-,N/A,,Clear,310,2013-08-08 00:54:00
9:54 PM,66.0,59.0,78,29.90,10.0,NW,5.8,-,N/A,,Clear,310,2013-08-08 01:54:00
10:54 PM,64.0,57.9,80,29.93,10.0,NW,8.1,-,N/A,,Clear,320,2013-08-08 02:54:00
11:28 PM,62.6,59.0,88,29.94,10.0,NNW,5.8,-,N/A,,Mostly Cloudy,330,2013-08-08 03:28:00
11:50 PM,62.6,57.2,82,29.94,10.0,WNW,3.5,-,N/A,,Scattered Clouds,290,2013-08-08 03:50:00
11:54 PM,62.1,57.9,86,29.94,10.0,West,3.5,-,N/A,,Partly Cloudy,280,2013-08-08 03:54:00